EA5DHO-13 Weather Reports


Display with metric or nautical units.
time (UTC)temp
F
wind
direction
speed
MPH
gust
MPH
rain 1hr
in
rain 24hr
in
rain mn
in
humidity
%
barometer
mb
20260904123448 85 90 8.0 11.0 0.00 0.00 0.00 70 1022.2
20260904122443 86 90 10.0 11.0 0.00 0.00 0.00 71 1022.3
20260904121440 88 101 5.0 11.0 0.00 0.00 0.00 69 1022.5
20260904120438 85 129 6.0 9.0 0.00 0.00 0.00 71 1022.5
20260904115435 86 116 6.0 9.0 0.00 0.00 0.00 72 1022.6
20260904114431 87 104 6.0 9.0 0.00 0.00 0.00 69 1022.6
20260904113427 88 110 4.0 6.0 0.00 0.00 0.00 69 1022.7
20260904112424 87 105 7.0 13.0 0.00 0.00 0.00 69 1022.7
20260904111442 87 175 2.0 7.0 0.00 0.00 0.00 71 1022.8
20260904110417 87 132 6.0 11.0 0.00 0.00 0.00 70 1023.0
20260904105537 86 184 7.0 11.0 0.00 0.00 0.00 72 1023.0
20260904104511 87 90 6.0 11.0 0.00 0.00 0.00 70 1022.9
20260904103509 87 187 4.0 11.0 0.00 0.00 0.00 68 1023.1
20260904102505 88 139 4.0 9.0 0.00 0.00 0.00 65 1023.2
20260904101501 89 158 3.0 4.0 0.00 0.00 0.00 61 1023.2
20260904100458 89 125 3.0 6.0 0.00 0.00 0.00 59 1023.3
20260904095516 89 134 2.0 4.0 0.00 0.00 0.00 58 1023.2
20260904094452 91 125 1.0 2.0 0.00 0.00 0.00 53 1023.2
20260904093449 88 194 1.0 4.0 0.00 0.00 0.00 56 1023.2
20260904092505 87 233 4.0 6.0 0.00 0.00 0.00 56 1023.2
20260904091442 87 224 4.0 7.0 0.00 0.00 0.00 58 1023.2
20260904090439 86 158 2.0 4.0 0.00 0.00 0.00 59 1023.2
20260904085437 85 203 2.0 4.0 0.00 0.00 0.00 62 1023.2
20260904084434 86 180 0.0 2.0 0.00 0.00 0.00 63 1023.1
20260904083429 83 248 3.0 4.0 0.00 0.00 0.00 66 1023.1
20260904082426 82 248 3.0 4.0 0.00 0.00 0.00 68 1023.1
20260904081424 82 248 2.0 4.0 0.00 0.00 0.00 68 1023.0
20260904080420 81 248 2.0 4.0 0.00 0.00 0.00 69 1022.9
20260904075416 81 248 2.0 4.0 0.00 0.00 0.00 70 1023.0
20260904074514 81 248 0.0 2.0 0.00 0.00 0.00 70 1023.0
20260904073511 79 248 1.0 2.0 0.00 0.00 0.00 73 1023.0
20260904072506 78 248 1.0 2.0 0.00 0.00 0.00 76 1023.0
20260904071504 77 248 2.0 4.0 0.00 0.00 0.00 78 1023.1
20260904070522 76 248 3.0 4.0 0.00 0.00 0.00 81 1023.2
20260904065517 76 270 2.0 4.0 0.00 0.00 0.00 83 1023.2
20260904064454 75 248 2.0 4.0 0.00 0.00 0.00 85 1023.2
20260904063452 75 280 1.0 4.0 0.00 0.00 0.00 86 1023.2
20260904062447 75 256 3.0 6.0 0.00 0.00 0.00 86 1023.2
20260904061443 75 270 2.0 4.0 0.00 0.00 0.00 86 1023.2
20260904060500 75 270 1.0 2.0 0.00 0.00 0.00 85 1023.1
20260904055437 76 248 1.0 2.0 0.00 0.00 0.00 84 1023.0
20260904054433 76 0.0 0.0 0.00 0.00 0.00 84 1023.0
20260904053430 76 0.0 0.0 0.00 0.00 0.00 84 1023.1
20260904052427 76 0.0 0.0 0.00 0.00 0.00 84 1023.1
20260904051424 76 0.0 0.0 0.00 0.00 0.00 84 1023.1
20260904050421 76 0.0 0.0 0.00 0.00 0.00 84 1023.2
20260904045417 76 0.0 0.0 0.00 0.00 0.00 84 1023.2
20260904044534 76 0.0 0.0 0.00 0.00 0.00 84 1023.0
20260904043511 76 0.0 0.0 0.00 0.00 0.00 84 1023.2
20260904042508 76 0.0 0.0 0.00 0.00 0.00 84 1023.2
20260904041505 76 0.0 2.0 0.00 0.00 0.00 84 1023.2
20260904040501 76 0.0 0.0 0.00 0.00 0.00 84 1023.1
20260904035459 76 0.0 0.0 0.00 0.00 0.00 84 1023.2
20260904034456 76 0.0 0.0 0.00 0.00 0.00 84 1023.2
20260904033452 76 0.0 2.0 0.00 0.00 0.00 84 1023.3
20260904032448 76 248 1.0 2.0 0.00 0.00 0.00 83 1023.3
20260904031505 76 264 2.0 4.0 0.00 0.00 0.00 84 1023.3
20260904030442 77 248 2.0 4.0 0.00 0.00 0.00 83 1023.4
20260904025459 77 248 1.0 2.0 0.00 0.00 0.00 83 1023.3
20260904024435 77 248 1.0 2.0 0.00 0.00 0.00 83 1023.2
20260904023432 77 0.0 0.0 0.00 0.00 0.00 83 1023.3
20260904022429 77 248 2.0 2.0 0.00 0.00 0.00 83 1023.4
20260904021427 76 248 2.0 2.0 0.00 0.00 0.00 83 1023.5
20260904020422 76 262 1.0 4.0 0.00 0.00 0.00 85 1023.6
20260904015420 76 0.0 2.0 0.00 0.00 0.00 86 1023.6
20260904014437 77 270 2.0 2.0 0.00 0.00 0.00 86 1023.6
20260904013534 77 248 2.0 4.0 0.00 0.00 0.00 86 1023.7
20260904012511 77 261 2.0 4.0 0.00 0.00 0.00 86 1023.8
20260904011508 77 0.0 2.0 0.00 0.00 0.00 86 1023.9
20260904010503 78 248 3.0 4.0 0.00 0.00 0.00 86 1023.9
20260904005500 78 270 2.0 4.0 0.00 0.00 0.00 86 1023.9
20260904004457 77 248 2.0 2.0 0.00 0.00 0.00 87 1024.1
20260904003454 77 253 2.0 4.0 0.00 0.00 0.00 87 1024.1
20260904002450 77 257 3.0 4.0 0.00 0.00 0.00 88 1024.1
20260904001508 77 253 3.0 4.0 0.00 0.00 0.00 89 1024.2
20260904000444 78 270 3.0 4.0 0.00 0.00 0.00 89 1024.2
20260903235440 78 255 2.0 2.0 0.00 0.00 0.00 89 1024.3
20260903234437 78 251 3.0 4.0 0.00 0.00 0.00 89 1024.4
20260903233434 78 264 3.0 4.0 0.00 0.00 0.00 89 1024.3
20260903232431 79 270 3.0 4.0 0.00 0.00 0.00 88 1024.3
20260903231428 79 276 2.0 4.0 0.00 0.00 0.00 88 1024.3
20260903230425 79 0 1.0 4.0 0.00 0.00 0.00 88 1024.4
20260903225421 79 0 1.0 2.0 0.00 0.00 0.00 88 1024.4
20260903224439 79 0 1.0 2.0 0.00 0.00 0.00 88 1024.5
20260903223555 80 23 1.0 2.0 0.00 0.00 0.00 88 1024.5
20260903222511 80 23 1.0 2.0 0.00 0.00 0.00 88 1024.7
20260903221509 80 0.0 0.0 0.00 0.00 0.00 88 1024.7
20260903220526 80 0.0 0.0 0.00 0.00 0.00 88 1024.8
20260903215522 80 23 1.0 2.0 0.00 0.00 0.00 88 1024.8
20260903214458 80 23 1.0 2.0 0.00 0.00 0.00 88 1024.9
20260903213455 80 0.0 2.0 0.00 0.00 0.00 88 1025.0
20260903212452 80 23 1.0 2.0 0.00 0.00 0.00 87 1025.0
20260903211448 80 23 1.0 4.0 0.00 0.00 0.00 87 1025.0
20260903210527 80 23 1.0 2.0 0.00 0.00 0.00 87 1025.1
20260903205503 80 23 0.0 2.0 0.00 0.00 0.00 87 1025.1
20260903204519 80 23 1.0 2.0 0.00 0.00 0.00 87 1025.0
20260903203436 80 45 0.0 2.0 0.00 0.00 0.00 87 1024.9
20260903202433 80 11 3.0 6.0 0.00 0.00 0.00 87 1024.8
20260903201429 80 0.0 0.0 0.00 0.00 0.00 87 1024.8
20260903200426 80 45 2.0 4.0 0.00 0.00 0.00 87 1024.8
20260903195424 80 45 1.0 2.0 0.00 0.00 0.00 87 1024.6
20260903194419 80 90 1.0 4.0 0.00 0.00 0.00 87 1024.4
20260903193519 80 76 1.0 4.0 0.00 0.00 0.00 87 1024.3
20260903192514 81 45 2.0 4.0 0.00 0.00 0.00 86 1024.1
20260903191511 81 51 4.0 7.0 0.00 0.00 0.00 86 1024.0
20260903190508 81 101 2.0 4.0 0.00 0.00 0.00 85 1023.9
20260903185525 81 50 3.0 7.0 0.00 0.00 0.00 85 1023.7
20260903184520 81 72 2.0 4.0 0.00 0.00 0.00 85 1023.6
20260903183457 81 68 2.0 4.0 0.00 0.00 0.00 85 1023.7
20260903182454 81 59 7.0 9.0 0.00 0.00 0.00 84 1023.6
20260903181450 81 84 5.0 8.0 0.00 0.00 0.00 84 1023.5
20260903180447 81 51 6.0 8.0 0.00 0.00 0.00 83 1023.5
20260903175444 81 68 4.0 7.0 0.00 0.00 0.00 84 1023.5
20260903174441 82 74 9.0 11.0 0.00 0.00 0.00 83 1023.4
20260903173438 82 105 8.0 11.0 0.00 0.00 0.00 80 1023.4
20260903172434 82 51 5.0 9.0 0.00 0.00 0.00 81 1023.4
20260903171431 82 68 10.0 14.0 0.00 0.00 0.00 80 1023.2
20260903170429 83 98 4.0 8.0 0.00 0.00 0.00 78 1023.3
20260903165425 83 68 5.0 8.0 0.00 0.00 0.00 76 1023.4
20260903164443 83 90 9.0 14.0 0.00 0.00 0.00 73 1023.5
20260903163418 82 70 7.0 14.0 0.00 0.00 0.00 77 1023.3
20260903162416 83 45 6.0 13.0 0.00 0.00 0.00 77 1023.4
20260903161512 83 75 4.0 7.0 0.00 0.00 0.00 77 1023.4
20260903160508 83 45 8.0 15.0 0.00 0.00 0.00 78 1023.4
20260903155505 84 68 8.0 14.0 0.00 0.00 0.00 74 1023.5
20260903154502 83 111 7.0 13.0 0.00 0.00 0.00 76 1023.5
20260903153500 83 90 10.0 14.0 0.00 0.00 0.00 74 1023.5
20260903152455 84 101 7.0 11.0 0.00 0.00 0.00 74 1023.5
20260903151452 84 45 9.0 13.0 0.00 0.00 0.00 75 1023.6
20260903150449 84 101 6.0 9.0 0.00 0.00 0.00 72 1023.6
20260903145445 84 96 11.0 18.0 0.00 0.00 0.00 70 1023.7
20260903144444 84 90 7.0 13.0 0.00 0.00 0.00 71 1023.8
20260903143439 85 76 10.0 15.0 0.00 0.00 0.00 67 1023.8
20260903142437 86 136 8.0 13.0 0.00 0.00 0.00 66 1023.9
20260903141434 87 89 5.0 13.0 0.00 0.00 0.00 61 1023.9
20260903140429 86 68 7.0 9.0 0.00 0.00 0.00 64 1024.0
20260903135426 87 57 4.0 9.0 0.00 0.00 0.00 61 1023.9
20260903134423 86 63 8.0 13.0 0.00 0.00 0.00 61 1024.1
20260903133440 86 59 7.0 11.0 0.00 0.00 0.00 65 1024.1
20260903132416 86 68 9.0 13.0 0.00 0.00 0.00 65 1024.3
20260903131514 86 68 5.0 11.0 0.00 0.00 0.00 63 1024.3
20260903130510 87 91 6.0 13.0 0.00 0.00 0.00 61 1024.4
20260903125508 86 68 7.0 11.0 0.00 0.00 0.00 62 1024.3
20260903124504 88 193 2.0 8.0 0.00 0.00 0.00 58 1024.6